owner,sensor,date,latitude,longitude,vertical_datum,sea_water_temperature,qcFlag 
TABS,ioos:station:wmo:42044:1,1998-05-13T00:00:00Z,26.1914,-97.0507,-2.0,24.67,11111222 
TABS,ioos:station:wmo:42044:1,1998-05-13T16:00:00Z,26.1914,-97.0507,-2.0,24.67,11111222 
TABS,ioos:station:wmo:42044:1,1998-05-13T16:30:00Z,26.1914,-97.0507,-2.0,24.63,11111222 
TABS,ioos:station:wmo:42044:1,1998-05-13T17:00:00Z,26.1914,-97.0507,-2.0,24.66,11111222 
TABS,ioos:station:wmo:42044:1,1998-05-14T10:30:00Z,26.1914,-97.0507,-2.0,24.4,11111222 
TABS,ioos:station:wmo:42044:1,1998-05-14T11:00:00Z,26.1914,-97.0507,-2.0,24.33,11111222 
TABS,ioos:station:wmo:42044:1,1998-05-14T11:30:00Z,26.1914,-97.0507,-2.0,24.33,11111222 
TABS,ioos:station:wmo:42044:1,1998-05-14T12:00:00Z,26.1914,-97.0507,-2.0,24.33,11111222 
TABS,ioos:station:wmo:42044:1,1998-05-14T12:30:00Z,26.1914,-97.0507,-2.0,24.32,11111222 
TABS,ioos:station:wmo:42044:1,1998-05-14T13:00:00Z,26.1914,-97.0507,-2.0,24.32,11111222 
TABS,ioos:station:wmo:42044:1,1998-05-15T00:00:00Z,26.1914,-97.0507,-2.0,24.9,11111222 
TABS,ioos:station:wmo:42044:1,1998-05-15T00:30:00Z,26.1914,-97.0507,-2.0,24.88,11111222 
TABS,ioos:station:wmo:42044:1,1998-05-15T01:00:00Z,26.1914,-97.0507,-2.0,24.87,11111222 
TABS,ioos:station:wmo:42044:1,1998-05-15T01:30:00Z,26.1914,-97.0507,-2.0,24.85,11111222 
TABS,ioos:station:wmo:42044:1,1998-05-15T02:00:00Z,26.1914,-97.0507,-2.0,24.84,11111222 
TABS,ioos:station:wmo:42044:1,1998-05-15T02:30:00Z,26.1914,-97.0507,-2.0,24.82,11111222 
TABS,ioos:station:wmo:42044:1,1998-05-15T03:00:00Z,26.1914,-97.0507,-2.0,24.81,11111222 
TABS,ioos:station:wmo:42044:1,1998-05-15T03:30:00Z,26.1914,-97.0507,-2.0,24.78,11111222 
TABS,ioos:station:wmo:42044:1,1998-05-15T04:00:00Z,26.1914,-97.0507,-2.0,24.75,11111222 
TABS,ioos:station:wmo:42044:1,1998-05-15T04:30:00Z,26.1914,-97.0507,-2.0,24.74,11111222 
TABS,ioos:station:wmo:42044:1,1998-05-15T05:00:00Z,26.1914,-97.0507,-2.0,24.72,11111222 
TABS,ioos:station:wmo:42044:1,1998-05-15T05:30:00Z,26.1914,-97.0507,-2.0,24.69,11111222 
TABS,ioos:station:wmo:42044:1,1998-05-15T06:00:00Z,26.1914,-97.0507,-2.0,24.67,11111222 
TABS,ioos:station:wmo:42044:1,1998-05-15T06:30:00Z,26.1914,-97.0507,-2.0,24.66,11111222 
TABS,ioos:station:wmo:42044:1,1998-05-15T07:00:00Z,26.1914,-97.0507,-2.0,24.63,11111222 
TABS,ioos:station:wmo:42044:1,1998-05-15T07:30:00Z,26.1914,-97.0507,-2.0,24.61,11111222 
TABS,ioos:station:wmo:42044:1,1998-05-15T08:00:00Z,26.1914,-97.0507,-2.0,24.57,11111222 
TABS,ioos:station:wmo:42044:1,1998-05-15T08:30:00Z,26.1914,-97.0507,-2.0,24.57,11111222 
TABS,ioos:station:wmo:42044:1,1998-05-15T09:00:00Z,26.1914,-97.0507,-2.0,24.53,11111222 
TABS,ioos:station:wmo:42044:1,1998-05-15T09:30:00Z,26.1914,-97.0507,-2.0,24.48,11111222 
TABS,ioos:station:wmo:42044:1,1998-05-15T10:00:00Z,26.1914,-97.0507,-2.0,24.47,11111222 
TABS,ioos:station:wmo:42044:1,1998-05-15T10:30:00Z,26.1914,-97.0507,-2.0,24.46,11111222 
TABS,ioos:station:wmo:42044:1,1998-05-15T11:00:00Z,26.1914,-97.0507,-2.0,24.47,11111222 
TABS,ioos:station:wmo:42044:1,1998-05-15T11:30:00Z,26.1914,-97.0507,-2.0,24.44,11111222 
TABS,ioos:station:wmo:42044:1,1998-05-15T12:00:00Z,26.1914,-97.0507,-2.0,24.43,11111222 
TABS,ioos:station:wmo:42044:1,1998-05-15T12:30:00Z,26.1914,-97.0507,-2.0,24.43,11111222 
TABS,ioos:station:wmo:42044:1,1998-05-15T13:00:00Z,26.1914,-97.0507,-2.0,24.45,11111222 
TABS,ioos:station:wmo:42044:1,1998-05-15T13:30:00Z,26.1914,-97.0507,-2.0,24.43,11111222 
TABS,ioos:station:wmo:42044:1,1998-05-15T14:00:00Z,26.1914,-97.0507,-2.0,24.35,11111222 
TABS,ioos:station:wmo:42044:1,1998-05-15T14:30:00Z,26.1914,-97.0507,-2.0,24.65,11111222 
TABS,ioos:station:wmo:42044:1,1998-05-15T15:00:00Z,26.1914,-97.0507,-2.0,24.8,11111222 
TABS,ioos:station:wmo:42044:1,1998-05-15T15:30:00Z,26.1914,-97.0507,-2.0,24.88,11111222 
TABS,ioos:station:wmo:42044:1,1998-05-15T16:00:00Z,26.1914,-97.0507,-2.0,24.86,11111222 
TABS,ioos:station:wmo:42044:1,1998-05-15T16:30:00Z,26.1914,-97.0507,-2.0,24.85,11111222 
TABS,ioos:station:wmo:42044:1,1998-05-15T17:00:00Z,26.1914,-97.0507,-2.0,24.94,11111222 
TABS,ioos:station:wmo:42044:1,1998-05-15T17:30:00Z,26.1914,-97.0507,-2.0,25.03,11111222 
TABS,ioos:station:wmo:42044:1,1998-05-15T18:00:00Z,26.1914,-97.0507,-2.0,25.13,11111222 
TABS,ioos:station:wmo:42044:1,1998-05-15T18:30:00Z,26.1914,-97.0507,-2.0,25.17,11111222 
TABS,ioos:station:wmo:42044:1,1998-05-15T19:00:00Z,26.1914,-97.0507,-2.0,25.21,11111222 
TABS,ioos:station:wmo:42044:1,1998-05-15T19:30:00Z,26.1914,-97.0507,-2.0,25.5,11111222 
TABS,ioos:station:wmo:42044:1,1998-05-15T20:00:00Z,26.1914,-97.0507,-2.0,25.44,11111222 
TABS,ioos:station:wmo:42044:1,1998-05-15T20:30:00Z,26.1914,-97.0507,-2.0,25.48,11111222 
TABS,ioos:station:wmo:42044:1,1998-05-15T21:00:00Z,26.1914,-97.0507,-2.0,25.53,11111222 
TABS,ioos:station:wmo:42044:1,1998-05-15T21:30:00Z,26.1914,-97.0507,-2.0,25.51,11111222 
TABS,ioos:station:wmo:42044:1,1998-05-15T22:00:00Z,26.1914,-97.0507,-2.0,25.48,11111222 
TABS,ioos:station:wmo:42044:1,1998-05-15T22:30:00Z,26.1914,-97.0507,-2.0,25.47,11111222 
TABS,ioos:station:wmo:42044:1,1998-05-15T23:00:00Z,26.1914,-97.0507,-2.0,25.4,11111222 
TABS,ioos:station:wmo:42044:1,1998-05-15T23:30:00Z,26.1914,-97.0507,-2.0,25.38,11111222 
TABS,ioos:station:wmo:42044:1,1998-05-16T00:00:00Z,26.1914,-97.0507,-2.0,25.35,11111222 
TABS,ioos:station:wmo:42044:1,1998-05-16T00:30:00Z,26.1914,-97.0507,-2.0,25.38,11111222 
TABS,ioos:station:wmo:42044:1,1998-05-16T01:00:00Z,26.1914,-97.0507,-2.0,25.38,11111222 
TABS,ioos:station:wmo:42044:1,1998-05-16T04:30:00Z,26.1914,-97.0507,-2.0,25.21,11111222 
TABS,ioos:station:wmo:42044:1,1998-05-16T05:00:00Z,26.1914,-97.0507,-2.0,25.19,11111222 
TABS,ioos:station:wmo:42044:1,1998-05-16T05:30:00Z,26.1914,-97.0507,-2.0,25.14,11111222 
TABS,ioos:station:wmo:42044:1,1998-05-16T06:00:00Z,26.1914,-97.0507,-2.0,25.09,11111222 
TABS,ioos:station:wmo:42044:1,1998-05-16T06:30:00Z,26.1914,-97.0507,-2.0,25.05,11111222 
TABS,ioos:station:wmo:42044:1,1998-05-16T07:00:00Z,26.1914,-97.0507,-2.0,25.04,11111222 
TABS,ioos:station:wmo:42044:1,1998-05-16T07:30:00Z,26.1914,-97.0507,-2.0,24.99,11111222 
TABS,ioos:station:wmo:42044:1,1998-05-16T08:00:00Z,26.1914,-97.0507,-2.0,24.96,11111222 
TABS,ioos:station:wmo:42044:1,1998-05-16T08:30:00Z,26.1914,-97.0507,-2.0,24.96,11111222 
TABS,ioos:station:wmo:42044:1,1998-05-16T09:00:00Z,26.1914,-97.0507,-2.0,24.72,11111222 
TABS,ioos:station:wmo:42044:1,1998-05-16T09:30:00Z,26.1914,-97.0507,-2.0,24.71,11111222 
TABS,ioos:station:wmo:42044:1,1998-05-16T10:00:00Z,26.1914,-97.0507,-2.0,24.71,11111222 
TABS,ioos:station:wmo:42044:1,1998-05-16T10:30:00Z,26.1914,-97.0507,-2.0,24.61,11111222 
TABS,ioos:station:wmo:42044:1,1998-05-16T11:00:00Z,26.1914,-97.0507,-2.0,24.53,11111222 
TABS,ioos:station:wmo:42044:1,1998-05-16T12:30:00Z,26.1914,-97.0507,-2.0,24.4,11111222 
TABS,ioos:station:wmo:42044:1,1998-05-16T13:00:00Z,26.1914,-97.0507,-2.0,24.4,11111222 
TABS,ioos:station:wmo:42044:1,1998-05-16T13:30:00Z,26.1914,-97.0507,-2.0,24.38,11111222 
TABS,ioos:station:wmo:42044:1,1998-05-16T14:00:00Z,26.1914,-97.0507,-2.0,24.39,11111222 
TABS,ioos:station:wmo:42044:1,1998-05-16T14:30:00Z,26.1914,-97.0507,-2.0,24.43,11111222 
TABS,ioos:station:wmo:42044:1,1998-05-16T15:00:00Z,26.1914,-97.0507,-2.0,24.45,11111222 
TABS,ioos:station:wmo:42044:1,1998-05-16T15:30:00Z,26.1914,-97.0507,-2.0,24.53,11111222 
TABS,ioos:station:wmo:42044:1,1998-05-16T16:00:00Z,26.1914,-97.0507,-2.0,24.56,11111222 
TABS,ioos:station:wmo:42044:1,1998-05-16T16:30:00Z,26.1914,-97.0507,-2.0,24.63,11111222 
TABS,ioos:station:wmo:42044:1,1998-05-16T17:00:00Z,26.1914,-97.0507,-2.0,24.75,11111222 
TABS,ioos:station:wmo:42044:1,1998-05-16T17:30:00Z,26.1914,-97.0507,-2.0,24.91,11111222 
TABS,ioos:station:wmo:42044:1,1998-05-16T18:00:00Z,26.1914,-97.0507,-2.0,25.16,11111222 
TABS,ioos:station:wmo:42044:1,1998-05-16T18:30:00Z,26.1914,-97.0507,-2.0,25.3,11111222 
TABS,ioos:station:wmo:42044:1,1998-05-16T19:00:00Z,26.1914,-97.0507,-2.0,25.36,11111222 
TABS,ioos:station:wmo:42044:1,1998-05-16T19:30:00Z,26.1914,-97.0507,-2.0,25.34,11111222 
TABS,ioos:station:wmo:42044:1,1998-05-16T20:00:00Z,26.1914,-97.0507,-2.0,25.32,11111222 
TABS,ioos:station:wmo:42044:1,1998-05-16T20:30:00Z,26.1914,-97.0507,-2.0,25.29,11111222 
TABS,ioos:station:wmo:42044:1,1998-05-16T21:00:00Z,26.1914,-97.0507,-2.0,25.26,11111222 
TABS,ioos:station:wmo:42044:1,1998-05-16T21:30:00Z,26.1914,-97.0507,-2.0,25.31,11111222 
TABS,ioos:station:wmo:42044:1,1998-05-16T22:00:00Z,26.1914,-97.0507,-2.0,25.33,11111222 
TABS,ioos:station:wmo:42044:1,1998-05-16T22:30:00Z,26.1914,-97.0507,-2.0,25.33,11111222 
TABS,ioos:station:wmo:42044:1,1998-05-16T23:00:00Z,26.1914,-97.0507,-2.0,25.33,11111222 
TABS,ioos:station:wmo:42044:1,1998-05-16T23:30:00Z,26.1914,-97.0507,-2.0,25.35,11111222 
TABS,ioos:station:wmo:42044:1,1998-05-17T00:00:00Z,26.1914,-97.0507,-2.0,25.38,11111222 
TABS,ioos:station:wmo:42044:1,1998-05-17T00:30:00Z,26.1914,-97.0507,-2.0,25.33,11111222 
TABS,ioos:station:wmo:42044:1,1998-05-17T01:00:00Z,26.1914,-97.0507,-2.0,25.29,11111222 
TABS,ioos:station:wmo:42044:1,1998-05-17T01:30:00Z,26.1914,-97.0507,-2.0,25.18,11111222 
TABS,ioos:station:wmo:42044:1,1998-05-17T02:00:00Z,26.1914,-97.0507,-2.0,25.12,11111222 
TABS,ioos:station:wmo:42044:1,1998-05-17T02:30:00Z,26.1914,-97.0507,-2.0,25.13,11111222 
TABS,ioos:station:wmo:42044:1,1998-05-17T03:00:00Z,26.1914,-97.0507,-2.0,25.15,11111222 
TABS,ioos:station:wmo:42044:1,1998-05-17T03:30:00Z,26.1914,-97.0507,-2.0,25.18,11111222 
TABS,ioos:station:wmo:42044:1,1998-05-17T04:00:00Z,26.1914,-97.0507,-2.0,25.15,11111222 
TABS,ioos:station:wmo:42044:1,1998-05-17T04:30:00Z,26.1914,-97.0507,-2.0,24.96,11111222 
TABS,ioos:station:wmo:42044:1,1998-05-17T05:00:00Z,26.1914,-97.0507,-2.0,24.89,11111222 
TABS,ioos:station:wmo:42044:1,1998-05-17T05:30:00Z,26.1914,-97.0507,-2.0,24.72,11111222 
TABS,ioos:station:wmo:42044:1,1998-05-17T06:00:00Z,26.1914,-97.0507,-2.0,24.2,11111222 
TABS,ioos:station:wmo:42044:1,1998-05-17T06:30:00Z,26.1914,-97.0507,-2.0,24.06,11111222 
TABS,ioos:station:wmo:42044:1,1998-05-17T07:00:00Z,26.1914,-97.0507,-2.0,24.09,11111222 
TABS,ioos:station:wmo:42044:1,1998-05-17T07:30:00Z,26.1914,-97.0507,-2.0,24.01,11111222 
TABS,ioos:station:wmo:42044:1,1998-05-17T08:00:00Z,26.1914,-97.0507,-2.0,24.0,11111222 
TABS,ioos:station:wmo:42044:1,1998-05-17T08:30:00Z,26.1914,-97.0507,-2.0,24.02,11111222 
TABS,ioos:station:wmo:42044:1,1998-05-17T09:00:00Z,26.1914,-97.0507,-2.0,23.97,11111222 
TABS,ioos:station:wmo:42044:1,1998-05-17T09:30:00Z,26.1914,-97.0507,-2.0,23.98,11111222 
TABS,ioos:station:wmo:42044:1,1998-05-17T10:00:00Z,26.1914,-97.0507,-2.0,24.02,11111222 
TABS,ioos:station:wmo:42044:1,1998-05-17T10:30:00Z,26.1914,-97.0507,-2.0,23.99,11111222 
TABS,ioos:station:wmo:42044:1,1998-05-17T11:00:00Z,26.1914,-97.0507,-2.0,23.99,11111222 
TABS,ioos:station:wmo:42044:1,1998-05-17T11:30:00Z,26.1914,-97.0507,-2.0,24.0,11111222 
TABS,ioos:station:wmo:42044:1,1998-05-17T12:00:00Z,26.1914,-97.0507,-2.0,24.03,11111222 
TABS,ioos:station:wmo:42044:1,1998-05-17T12:30:00Z,26.1914,-97.0507,-2.0,24.1,11111222 
TABS,ioos:station:wmo:42044:1,1998-05-17T13:00:00Z,26.1914,-97.0507,-2.0,24.07,11111222 
TABS,ioos:station:wmo:42044:1,1998-05-17T13:30:00Z,26.1914,-97.0507,-2.0,24.16,11111222 
TABS,ioos:station:wmo:42044:1,1998-05-17T14:00:00Z,26.1914,-97.0507,-2.0,24.23,11111222 
TABS,ioos:station:wmo:42044:1,1998-05-17T14:30:00Z,26.1914,-97.0507,-2.0,24.34,11111222 
TABS,ioos:station:wmo:42044:1,1998-05-17T15:00:00Z,26.1914,-97.0507,-2.0,24.42,11111222 
TABS,ioos:station:wmo:42044:1,1998-05-17T15:30:00Z,26.1914,-97.0507,-2.0,24.47,11111222 
TABS,ioos:station:wmo:42044:1,1998-05-17T16:00:00Z,26.1914,-97.0507,-2.0,24.57,11111222 
TABS,ioos:station:wmo:42044:1,1998-05-17T16:30:00Z,26.1914,-97.0507,-2.0,24.7,11111222 
TABS,ioos:station:wmo:42044:1,1998-05-17T17:00:00Z,26.1914,-97.0507,-2.0,24.77,11111222 
TABS,ioos:station:wmo:42044:1,1998-05-17T17:30:00Z,26.1914,-97.0507,-2.0,24.9,11111222 
TABS,ioos:station:wmo:42044:1,1998-05-17T18:00:00Z,26.1914,-97.0507,-2.0,25.05,11111222 
TABS,ioos:station:wmo:42044:1,1998-05-17T18:30:00Z,26.1914,-97.0507,-2.0,25.16,11111222 
TABS,ioos:station:wmo:42044:1,1998-05-17T19:00:00Z,26.1914,-97.0507,-2.0,25.23,11111222 
TABS,ioos:station:wmo:42044:1,1998-05-17T19:30:00Z,26.1914,-97.0507,-2.0,25.29,11111222 
TABS,ioos:station:wmo:42044:1,1998-05-17T20:00:00Z,26.1914,-97.0507,-2.0,25.3,11111222 
TABS,ioos:station:wmo:42044:1,1998-05-17T21:00:00Z,26.1914,-97.0507,-2.0,25.35,11111222 
TABS,ioos:station:wmo:42044:1,1998-05-18T00:00:00Z,26.1914,-97.0507,-2.0,25.38,11111222 
TABS,ioos:station:wmo:42044:1,1998-05-18T00:30:00Z,26.1914,-97.0507,-2.0,25.38,11111222 
TABS,ioos:station:wmo:42044:1,1998-05-18T01:00:00Z,26.1914,-97.0507,-2.0,25.35,11111222 
TABS,ioos:station:wmo:42044:1,1998-05-18T01:30:00Z,26.1914,-97.0507,-2.0,25.35,11111222 
TABS,ioos:station:wmo:42044:1,1998-05-18T02:00:00Z,26.1914,-97.0507,-2.0,25.35,11111222 
TABS,ioos:station:wmo:42044:1,1998-05-18T02:30:00Z,26.1914,-97.0507,-2.0,25.3,11111222 
TABS,ioos:station:wmo:42044:1,1998-05-18T03:00:00Z,26.1914,-97.0507,-2.0,25.45,11111222 
TABS,ioos:station:wmo:42044:1,1998-05-18T03:30:00Z,26.1914,-97.0507,-2.0,25.48,11111222 
TABS,ioos:station:wmo:42044:1,1998-05-18T04:00:00Z,26.1914,-97.0507,-2.0,25.38,11111222 
TABS,ioos:station:wmo:42044:1,1998-05-18T04:30:00Z,26.1914,-97.0507,-2.0,25.13,11111222 
TABS,ioos:station:wmo:42044:1,1998-05-18T05:00:00Z,26.1914,-97.0507,-2.0,25.02,11111222 
TABS,ioos:station:wmo:42044:1,1998-05-18T05:30:00Z,26.1914,-97.0507,-2.0,25.01,11111222 
TABS,ioos:station:wmo:42044:1,1998-05-18T06:00:00Z,26.1914,-97.0507,-2.0,24.98,11111222 
TABS,ioos:station:wmo:42044:1,1998-05-18T06:30:00Z,26.1914,-97.0507,-2.0,24.95,11111222 
TABS,ioos:station:wmo:42044:1,1998-05-18T07:00:00Z,26.1914,-97.0507,-2.0,24.92,11111222 
TABS,ioos:station:wmo:42044:1,1998-05-18T07:30:00Z,26.1914,-97.0507,-2.0,24.87,11111222 
TABS,ioos:station:wmo:42044:1,1998-05-18T08:00:00Z,26.1914,-97.0507,-2.0,24.78,11111222 
TABS,ioos:station:wmo:42044:1,1998-05-18T08:30:00Z,26.1914,-97.0507,-2.0,24.73,11111222 
TABS,ioos:station:wmo:42044:1,1998-05-18T09:00:00Z,26.1914,-97.0507,-2.0,24.63,11111222 
TABS,ioos:station:wmo:42044:1,1998-05-18T09:30:00Z,26.1914,-97.0507,-2.0,24.55,11111222 
TABS,ioos:station:wmo:42044:1,1998-05-18T10:00:00Z,26.1914,-97.0507,-2.0,24.49,11111222 
TABS,ioos:station:wmo:42044:1,1998-05-18T10:30:00Z,26.1914,-97.0507,-2.0,24.46,11111222 
TABS,ioos:station:wmo:42044:1,1998-05-18T11:00:00Z,26.1914,-97.0507,-2.0,24.44,11111222 
TABS,ioos:station:wmo:42044:1,1998-05-18T11:30:00Z,26.1914,-97.0507,-2.0,24.41,11111222 
TABS,ioos:station:wmo:42044:1,1998-05-18T12:00:00Z,26.1914,-97.0507,-2.0,24.4,11111222 
TABS,ioos:station:wmo:42044:1,1998-05-18T12:30:00Z,26.1914,-97.0507,-2.0,24.37,11111222 
TABS,ioos:station:wmo:42044:1,1998-05-18T13:00:00Z,26.1914,-97.0507,-2.0,24.36,11111222 
TABS,ioos:station:wmo:42044:1,1998-05-18T13:30:00Z,26.1914,-97.0507,-2.0,24.36,11111222 
TABS,ioos:station:wmo:42044:1,1998-05-18T14:00:00Z,26.1914,-97.0507,-2.0,24.38,11111222 
TABS,ioos:station:wmo:42044:1,1998-05-18T14:30:00Z,26.1914,-97.0507,-2.0,24.4,11111222 
TABS,ioos:station:wmo:42044:1,1998-05-18T15:00:00Z,26.1914,-97.0507,-2.0,24.43,11111222 
TABS,ioos:station:wmo:42044:1,1998-05-18T15:30:00Z,26.1914,-97.0507,-2.0,24.47,11111222 
TABS,ioos:station:wmo:42044:1,1998-05-18T16:00:00Z,26.1914,-97.0507,-2.0,24.51,11111222 
TABS,ioos:station:wmo:42044:1,1998-05-18T16:30:00Z,26.1914,-97.0507,-2.0,24.57,11111222 
TABS,ioos:station:wmo:42044:1,1998-05-18T17:00:00Z,26.1914,-97.0507,-2.0,24.61,11111222 
TABS,ioos:station:wmo:42044:1,1998-05-18T18:30:00Z,26.1914,-97.0507,-2.0,24.81,11111222 
TABS,ioos:station:wmo:42044:1,1998-05-18T19:00:00Z,26.1914,-97.0507,-2.0,24.86,11111222 
TABS,ioos:station:wmo:42044:1,1998-05-18T19:30:00Z,26.1914,-97.0507,-2.0,24.8,11111222 
TABS,ioos:station:wmo:42044:1,1998-05-18T20:00:00Z,26.1914,-97.0507,-2.0,24.83,11111222 
TABS,ioos:station:wmo:42044:1,1998-05-18T20:30:00Z,26.1914,-97.0507,-2.0,24.91,11111222 
TABS,ioos:station:wmo:42044:1,1998-05-18T21:00:00Z,26.1914,-97.0507,-2.0,25.02,11111222 
TABS,ioos:station:wmo:42044:1,1998-05-18T21:30:00Z,26.1914,-97.0507,-2.0,25.21,11111222 
TABS,ioos:station:wmo:42044:1,1998-05-18T22:00:00Z,26.1914,-97.0507,-2.0,25.01,11111222 
TABS,ioos:station:wmo:42044:1,1998-05-19T04:30:00Z,26.1914,-97.0507,-2.0,24.91,11111222 
TABS,ioos:station:wmo:42044:1,1998-05-19T05:00:00Z,26.1914,-97.0507,-2.0,24.9,11111222 
TABS,ioos:station:wmo:42044:1,1998-05-19T05:30:00Z,26.1914,-97.0507,-2.0,24.89,11111222 
TABS,ioos:station:wmo:42044:1,1998-05-19T06:00:00Z,26.1914,-97.0507,-2.0,24.89,11111222 
TABS,ioos:station:wmo:42044:1,1998-05-19T06:30:00Z,26.1914,-97.0507,-2.0,24.9,11111222 
TABS,ioos:station:wmo:42044:1,1998-05-19T07:00:00Z,26.1914,-97.0507,-2.0,24.91,11111222 
TABS,ioos:station:wmo:42044:1,1998-05-19T07:30:00Z,26.1914,-97.0507,-2.0,24.92,11111222 
TABS,ioos:station:wmo:42044:1,1998-05-19T08:00:00Z,26.1914,-97.0507,-2.0,24.91,11111222 
TABS,ioos:station:wmo:42044:1,1998-05-19T08:30:00Z,26.1914,-97.0507,-2.0,24.89,11111222 
TABS,ioos:station:wmo:42044:1,1998-05-19T09:00:00Z,26.1914,-97.0507,-2.0,24.87,11111222 
TABS,ioos:station:wmo:42044:1,1998-05-19T09:30:00Z,26.1914,-97.0507,-2.0,24.87,11111222 
TABS,ioos:station:wmo:42044:1,1998-05-19T10:00:00Z,26.1914,-97.0507,-2.0,24.87,11111222 
TABS,ioos:station:wmo:42044:1,1998-05-19T11:00:00Z,26.1914,-97.0507,-2.0,24.85,11111222 
TABS,ioos:station:wmo:42044:1,1998-05-19T11:30:00Z,26.1914,-97.0507,-2.0,24.83,11111222 
TABS,ioos:station:wmo:42044:1,1998-05-19T12:00:00Z,26.1914,-97.0507,-2.0,24.81,11111222 
TABS,ioos:station:wmo:42044:1,1998-05-19T12:30:00Z,26.1914,-97.0507,-2.0,24.8,11111222 
TABS,ioos:station:wmo:42044:1,1998-05-19T13:00:00Z,26.1914,-97.0507,-2.0,24.79,11111222 
TABS,ioos:station:wmo:42044:1,1998-05-19T13:30:00Z,26.1914,-97.0507,-2.0,24.79,11111222 
TABS,ioos:station:wmo:42044:1,1998-05-19T14:00:00Z,26.1914,-97.0507,-2.0,24.8,11111222 
TABS,ioos:station:wmo:42044:1,1998-05-19T14:30:00Z,26.1914,-97.0507,-2.0,24.79,11111222 
TABS,ioos:station:wmo:42044:1,1998-05-19T15:00:00Z,26.1914,-97.0507,-2.0,24.82,11111222 
TABS,ioos:station:wmo:42044:1,1998-05-19T15:30:00Z,26.1914,-97.0507,-2.0,24.81,11111222 
TABS,ioos:station:wmo:42044:1,1998-05-19T16:00:00Z,26.1914,-97.0507,-2.0,24.83,11111222 
TABS,ioos:station:wmo:42044:1,1998-05-19T16:30:00Z,26.1914,-97.0507,-2.0,24.85,11111222 
TABS,ioos:station:wmo:42044:1,1998-05-19T17:00:00Z,26.1914,-97.0507,-2.0,24.89,11111222 
TABS,ioos:station:wmo:42044:1,1998-05-19T17:30:00Z,26.1914,-97.0507,-2.0,24.93,11111222 
TABS,ioos:station:wmo:42044:1,1998-05-19T18:00:00Z,26.1914,-97.0507,-2.0,25.0,11111222 
TABS,ioos:station:wmo:42044:1,1998-05-19T18:30:00Z,26.1914,-97.0507,-2.0,25.05,11111222 
TABS,ioos:station:wmo:42044:1,1998-05-19T19:00:00Z,26.1914,-97.0507,-2.0,25.02,11111222 
TABS,ioos:station:wmo:42044:1,1998-05-19T19:30:00Z,26.1914,-97.0507,-2.0,25.11,11111222 
TABS,ioos:station:wmo:42044:1,1998-05-19T20:00:00Z,26.1914,-97.0507,-2.0,25.14,11111222 
TABS,ioos:station:wmo:42044:1,1998-05-19T20:30:00Z,26.1914,-97.0507,-2.0,25.17,11111222 
TABS,ioos:station:wmo:42044:1,1998-05-19T21:00:00Z,26.1914,-97.0507,-2.0,25.17,11111222 
TABS,ioos:station:wmo:42044:1,1998-05-19T21:30:00Z,26.1914,-97.0507,-2.0,25.19,11111222 
TABS,ioos:station:wmo:42044:1,1998-05-19T22:00:00Z,26.1914,-97.0507,-2.0,25.19,11111222 
TABS,ioos:station:wmo:42044:1,1998-05-19T22:30:00Z,26.1914,-97.0507,-2.0,25.23,11111222 
TABS,ioos:station:wmo:42044:1,1998-05-19T23:00:00Z,26.1914,-97.0507,-2.0,25.2,11111222 
TABS,ioos:station:wmo:42044:1,1998-05-19T23:30:00Z,26.1914,-97.0507,-2.0,25.18,11111222 
TABS,ioos:station:wmo:42044:1,1998-05-20T00:00:00Z,26.1914,-97.0507,-2.0,25.14,11111222 
TABS,ioos:station:wmo:42044:1,1998-05-20T00:30:00Z,26.1914,-97.0507,-2.0,25.12,11111222 
TABS,ioos:station:wmo:42044:1,1998-05-20T01:00:00Z,26.1914,-97.0507,-2.0,25.11,11111222 
TABS,ioos:station:wmo:42044:1,1998-05-20T01:30:00Z,26.1914,-97.0507,-2.0,25.11,11111222 
TABS,ioos:station:wmo:42044:1,1998-05-20T02:00:00Z,26.1914,-97.0507,-2.0,25.06,11111222 
TABS,ioos:station:wmo:42044:1,1998-05-20T02:30:00Z,26.1914,-97.0507,-2.0,25.06,11111222 
TABS,ioos:station:wmo:42044:1,1998-05-20T03:00:00Z,26.1914,-97.0507,-2.0,24.98,11111222 
TABS,ioos:station:wmo:42044:1,1998-05-20T04:30:00Z,26.1914,-97.0507,-2.0,24.79,11111222 
TABS,ioos:station:wmo:42044:1,1998-05-20T05:00:00Z,26.1914,-97.0507,-2.0,24.7,11111222 
TABS,ioos:station:wmo:42044:1,1998-05-20T05:30:00Z,26.1914,-97.0507,-2.0,24.71,11111222 
TABS,ioos:station:wmo:42044:1,1998-05-20T06:00:00Z,26.1914,-97.0507,-2.0,24.7,11111222 
TABS,ioos:station:wmo:42044:1,1998-05-20T06:30:00Z,26.1914,-97.0507,-2.0,24.68,11111222 
TABS,ioos:station:wmo:42044:1,1998-05-20T07:00:00Z,26.1914,-97.0507,-2.0,24.66,11111222 
TABS,ioos:station:wmo:42044:1,1998-05-20T07:30:00Z,26.1914,-97.0507,-2.0,24.63,11111222 
TABS,ioos:station:wmo:42044:1,1998-05-20T08:00:00Z,26.1914,-97.0507,-2.0,24.6,11111222 
TABS,ioos:station:wmo:42044:1,1998-05-20T08:30:00Z,26.1914,-97.0507,-2.0,24.58,11111222 
TABS,ioos:station:wmo:42044:1,1998-05-20T09:00:00Z,26.1914,-97.0507,-2.0,24.59,11111222 
TABS,ioos:station:wmo:42044:1,1998-05-20T09:30:00Z,26.1914,-97.0507,-2.0,24.64,11111222 
TABS,ioos:station:wmo:42044:1,1998-05-20T10:00:00Z,26.1914,-97.0507,-2.0,24.71,11111222 
TABS,ioos:station:wmo:42044:1,1998-05-20T10:30:00Z,26.1914,-97.0507,-2.0,24.74,11111222 
TABS,ioos:station:wmo:42044:1,1998-05-20T11:00:00Z,26.1914,-97.0507,-2.0,24.73,11111222 
TABS,ioos:station:wmo:42044:1,1998-05-20T11:30:00Z,26.1914,-97.0507,-2.0,24.73,11111222 
TABS,ioos:station:wmo:42044:1,1998-05-20T12:00:00Z,26.1914,-97.0507,-2.0,24.71,11111222 
TABS,ioos:station:wmo:42044:1,1998-05-20T12:30:00Z,26.1914,-97.0507,-2.0,24.72,11111222 
TABS,ioos:station:wmo:42044:1,1998-05-20T13:00:00Z,26.1914,-97.0507,-2.0,24.71,11111222 
TABS,ioos:station:wmo:42044:1,1998-05-20T13:30:00Z,26.1914,-97.0507,-2.0,24.69,11111222 
TABS,ioos:station:wmo:42044:1,1998-05-20T14:00:00Z,26.1914,-97.0507,-2.0,24.67,11111222 
TABS,ioos:station:wmo:42044:1,1998-05-20T14:30:00Z,26.1914,-97.0507,-2.0,24.67,11111222 
TABS,ioos:station:wmo:42044:1,1998-05-20T15:00:00Z,26.1914,-97.0507,-2.0,24.67,11111222 
TABS,ioos:station:wmo:42044:1,1998-05-20T15:30:00Z,26.1914,-97.0507,-2.0,24.67,11111222 
TABS,ioos:station:wmo:42044:1,1998-05-20T16:00:00Z,26.1914,-97.0507,-2.0,24.68,11111222 
TABS,ioos:station:wmo:42044:1,1998-05-20T16:30:00Z,26.1914,-97.0507,-2.0,24.69,11111222 
TABS,ioos:station:wmo:42044:1,1998-05-20T17:00:00Z,26.1914,-97.0507,-2.0,24.71,11111222 
TABS,ioos:station:wmo:42044:1,1998-05-20T17:30:00Z,26.1914,-97.0507,-2.0,24.73,11111222 
TABS,ioos:station:wmo:42044:1,1998-05-20T18:00:00Z,26.1914,-97.0507,-2.0,24.75,11111222 
TABS,ioos:station:wmo:42044:1,1998-05-20T21:00:00Z,26.1914,-97.0507,-2.0,24.85,11111222 
TABS,ioos:station:wmo:42044:1,1998-05-21T00:00:00Z,26.1914,-97.0507,-2.0,24.58,11111222 
TABS,ioos:station:wmo:42044:1,1998-05-21T00:30:00Z,26.1914,-97.0507,-2.0,24.5,11111222 
TABS,ioos:station:wmo:42044:1,1998-05-21T01:00:00Z,26.1914,-97.0507,-2.0,24.82,11111222 
TABS,ioos:station:wmo:42044:1,1998-05-21T01:30:00Z,26.1914,-97.0507,-2.0,25.14,11111222 
TABS,ioos:station:wmo:42044:1,1998-05-21T02:00:00Z,26.1914,-97.0507,-2.0,25.12,11111222 
TABS,ioos:station:wmo:42044:1,1998-05-21T02:30:00Z,26.1914,-97.0507,-2.0,24.96,11111222 
TABS,ioos:station:wmo:42044:1,1998-05-21T03:00:00Z,26.1914,-97.0507,-2.0,25.27,11111222 
TABS,ioos:station:wmo:42044:1,1998-05-21T03:30:00Z,26.1914,-97.0507,-2.0,25.23,11111222 
TABS,ioos:station:wmo:42044:1,1998-05-21T04:00:00Z,26.1914,-97.0507,-2.0,25.08,11111222 
TABS,ioos:station:wmo:42044:1,1998-05-21T04:30:00Z,26.1914,-97.0507,-2.0,25.04,11111222 
TABS,ioos:station:wmo:42044:1,1998-05-21T05:00:00Z,26.1914,-97.0507,-2.0,24.91,11111222 
TABS,ioos:station:wmo:42044:1,1998-05-21T05:30:00Z,26.1914,-97.0507,-2.0,24.85,11111222 